Location: Isles
(48.9125°N, 2.8272°E)
Time: 12:32:53
(UTC+00:00)

Cosmos 841 Rocket - Pass Details

Date: 03 February 2023
Orbit: 746 x 771 km, 74.0° (Epoch: 25 March)

Event Time Altitude Azimuth Distance (km) Brightness Sun altitude
Rises 18:28:45 0° 338° (NNW) 3,258 7.0 -16.6°
Reaches altitude 10° 18:31:10 10° 341° (NNW) 2,326 6.2 -17.0°
Maximum altitude 18:36:26 69° 64° (ENE) 825 3.4 -17.8°
Drops below altitude 10° 18:41:40 10° 149° (SSE) 2,303 5.7 -18.7°
Enters shadow 18:42:12 - 149° (SSE) 2,512 5.9 -18.8°
